Location: Kawakawa
(35.3830°S, 174.0670°E)
Time: 18:37:45
(UTC+12:00)

CZ-4C R/B - Pass Details

Date: 15 August 2020
Orbit: 629 x 1373 km, 63.4° (Epoch: 25 September)

Event Time Altitude Azimuth Distance (km) Brightness Sun altitude
Rises 19:14:22 0° 321° (NW) 4,389 6.6 -17.3°
Reaches altitude 10° 19:17:23 10° 318° (NW) 3,389 6.0 -17.9°
Maximum altitude 19:25:41 66° 237° (WSW) 1,355 3.4 -19.6°
Drops below altitude 10° 19:32:58 10° 155° (SSE) 2,991 4.8 -21.1°
Enters shadow 19:33:43 - 153° (SSE) 3,245 5.0 -21.2°
